Regional Weather Roundup
Issued by NWS State College, PA

Home | Current Version | Previous Version | Text Only | Print | Product List | Glossary On
Versions: 1 2 3 4 5 6 7 8 9 10 11 12 13 14 15 16 17 18 19 20 21 22 23 24 25 26 27 28 29 30 31 32 33 34 35 36 37 38 39 40 41 42 43 44 45 46 47 48 49 50
000
ASUS41 KCTP 311310
RWRCTP

REGIONAL WEATHER ROUNDUP
NATIONAL WEATHER SERVICE STATE COLLEGE PA
800 AM EST SAT JAN 31 2015

Note: "fair" indicates few or no clouds below 12,000 feet with no
significant weather and/or obstructions to visibility.

* = STATION THAT DOES NOT REPORT PRECIPITATION /E.G. RAIN...SNOW...ETC/
    THUNDER OR FOG.

PAZ002>004-007>009-013>016-020>023-029>032-311400-
WESTERN PENNSYLVANIA

CITY           SKY/WX    TMP DP  RH WIND       PRES   REMARKS
ERIE           CLOUDY    12   2  64 S9        30.34S WCI   0
MEADVILLE      CLOUDY     6   2  83 S3        30.28S
FRANKLIN*      CLOUDY     5   1  85 SW3       30.29S
NEW CASTLE     PTSUNNY    2  -1  87 CALM      30.35F
BEAVER COUNTY  MOCLDY     7   3  85 CALM      30.32S
BUTLER*        CLOUDY     7   3  85 CALM      30.34S
PITTSBURGH INT PTCLDY     6   3  87 S3        30.33S
PITTSBURGH     CLOUDY    10   2  69 SW6       30.33S WCI   0
INDIANA*       MOCLDY     5   1  85 CALM      30.35S
LATROBE        CLOUDY     9   3  78 SW7       30.36F WCI  -3
WASHINGTON CO* CLEAR      0  -2  92 CALM      30.35R
$$

PAZ004>006-010>012-017>019-024>028-033>037-041-042-045-046-049>053-311400-
CENTRAL PENNSYLVANIA

CITY           SKY/WX    TMP DP  RH WIND       PRES   REMARKS
BRADFORD       CLOUDY     8   3  80 W6        30.18S WCI  -2
DUBOIS         CLOUDY     7   4  87 W7        30.24R WCI  -5
CLEARFIELD     CLOUDY    10   3  73 W6        30.26R WCI   0
JOHNSTOWN      PTCLDY     4  -1  80 W10       30.20R WCI -11
ALTOONA        LGT SNOW  20   2  45 NW10      30.26S WCI   9
STATE COLLEGE  MOCLDY    12   3  67 NW14      30.28S WCI  -3
WILLIAMSPORT   CLOUDY     9  -1  64 W13       30.31R WCI  -7
SELINSGROVE    CLEAR     11   0  61 NW8G17    30.32R WCI  -1
FT INDIANTOWN  CLEAR     11  -1  57 W9G17     30.27R WCI  -1
CAPITAL CITY   CLEAR     14   0  53 NW15      30.30R WCI  -1
HARRISBURG     PTCLDY    13   1  59 NW14      30.30R WCI  -2
YORK           CLEAR     11   0  61 NW8       30.28R WCI  -1
$$

PAZ038>040-043-044-047-048-054-055-060>062-067>071-311400-
EASTERN PENNSYLVANIA

CITY           SKY/WX    TMP DP  RH WIND       PRES   REMARKS
SCRANTON       CLOUDY     8  -3  61 NW8       30.21R WCI  -4
MOUNT POCONO   CLOUDY     2  -5  72 NW24G35   30.00R BLWGSNOWWCI -21
ALLENTOWN      CLEAR     11  -4  51 NW9G24    30.19R WCI  -2
QUAKERTOWN*    SUNNY     10  -2  56 NW13G21   30.18R WCI  -5
READING        CLEAR     11  -3  53 NW16      30.25R WCI  -6
LANCASTER      CLEAR     11  -2  56 NW10      30.27R WCI  -3
COATESVILLE    SUNNY     12   0  57 NW13G26   30.21R WCI  -3
POTTSTOWN      CLEAR     10  -3  55 NW12G20   30.23R WCI  -5
BLUE BELL      CLEAR     14   0  52 W8        30.19R WCI   3
DOYLESTOWN     CLEAR     10  -3  55 NW9G22    30.17R WCI  -3
WILLOW GROVE   NOT AVBL
NORTH PHILA    CLEAR     15  -3  44 NW16      30.22R WCI  -1
PHILADELPHIA   CLEAR     15  -3  44 NW20      30.24R WCI  -2
$$


USA.gov is the U.S. government's official web portal to all federal, state and local government web resources and services.